Vorticity
nan nan nan nan nan nan nan nan nan nan nan nan nan nan nan nan nan nan nan nan nan nan nan nan nan nan nan nan nan nan nan nan nan nan nan nan nan nan nan nan nan nan nan nan nan nan nan nan nan nan nan nan nan nan nan nan nan nan nan nan nan nan nan nan nan nan nan nan nan nan nan nan nan nan nan nan nan nan nan nan nan nan nan nan nan nan
nan 8 8 7 8 10 17 18 13 7 6 7 8 8 9 8 8 10 11 9 7 5 6 8 10 12 10 10 15 18 20 20 19 17 17 19 20 22 24 26 25 24 21 17 12 7 4 6 10 15 21 23 21 17 12 11 9 9 8 7 7 7 7 8 8 8 9 10 11 11 11 10 9 8 7 7 7 7 7 7 6 7 7 7 7 nan
nan 9 9 10 10 9 12 19 17 12 8 7 8 10 9 6 5 7 10 11 9 7 6 7 8 11 8 6 13 19 24 25 25 23 21 21 22 23 26 29 28 27 23 18 13 9 8 13 19 24 27 27 24 19 15 13 11 10 10 10 10 9 9 8 8 9 9 10 10 10 10 10 9 8 7 7 7 7 7 7 7 7 7 7 7 nan
nan 8 9 11 11 9 9 17 17 13 9 11 11 11 7 5 5 7 10 12 12 12 13 13 11 12 12 12 15 19 21 20 19 17 17 18 20 22 26 29 30 31 29 25 22 19 21 25 28 30 28 23 19 16 14 13 12 11 11 11 11 10 10 10 9 9 9 9 9 9 9 9 9 8 7 7 8 8 8 8 8 8 7 7 7 nan
nan 6 7 8 10 10 11 15 18 16 11 11 12 11 7 5 5 8 10 12 14 15 18 20 17 14 15 17 19 18 16 12 10 9 8 10 13 16 20 24 27 30 32 32 32 32 31 31 30 26 20 15 12 11 11 11 11 11 11 11 11 11 11 11 10 10 10 9 9 9 9 9 9 8 8 9 9 9 9 8 8 7 7 7 7 nan
nan 7 7 6 8 9 11 14 16 17 13 10 10 10 9 7 7 8 10 11 12 13 16 18 18 16 15 18 20 17 12 8 6 4 3 4 5 8 11 15 19 23 27 30 32 32 31 28 23 18 13 11 9 9 10 10 10 10 10 11 11 11 11 11 10 10 10 9 10 10 10 10 9 9 9 9 9 9 8 8 8 7 7 7 7 nan
nan 9 8 6 6 7 8 11 14 15 13 10 8 8 9 9 10 9 10 10 10 10 11 13 14 14 14 15 16 13 9 6 4 3 1 1 1 2 4 7 10 13 17 20 22 22 23 20 16 13 11 10 9 9 9 9 9 9 10 10 10 10 10 10 10 10 10 10 10 10 10 9 9 9 8 8 8 8 8 8 8 8 7 7 7 nan
nan 9 9 7 5 6 7 9 13 15 14 10 8 7 7 9 10 11 10 9 9 8 8 9 10 10 10 11 11 9 7 5 3 2 0 -0 -1 -0 1 2 3 5 7 9 11 12 13 12 12 12 11 11 10 10 9 9 9 10 10 10 10 10 10 10 10 10 10 10 10 9 9 9 8 8 8 8 8 8 9 10 9 8 7 7 8 nan
nan 7 9 8 6 5 6 7 11 15 16 12 10 8 7 7 8 9 8 8 9 8 7 9 10 10 9 9 8 7 7 7 6 6 5 4 3 3 1 -1 -2 0 3 4 4 4 6 7 8 9 10 11 11 11 10 10 10 10 10 10 11 11 11 10 10 10 10 9 9 8 8 8 8 8 8 9 9 9 10 10 9 8 7 7 8 nan
nan 8 8 9 9 7 7 8 10 14 15 12 10 8 7 7 8 9 8 8 8 8 9 10 10 9 9 9 8 8 8 9 9 10 11 13 14 11 4 0 1 4 5 1 1 1 3 4 4 6 8 9 9 10 10 10 10 10 11 11 11 11 11 11 10 10 9 8 8 7 7 7 8 8 9 9 10 10 10 10 9 8 8 8 8 nan
nan 12 10 10 10 10 10 10 11 14 14 13 12 11 9 7 7 10 11 9 9 8 10 10 9 9 8 8 8 8 8 8 7 8 10 13 14 11 7 7 9 11 6 2 2 2 2 2 1 3 3 4 5 7 7 7 9 10 10 11 11 11 11 10 10 9 8 8 7 7 7 8 8 9 9 9 9 9 9 9 9 8 9 8 8 nan
nan 14 12 10 9 10 11 10 10 12 13 14 14 15 15 11 6 6 8 9 10 9 9 10 11 11 8 7 7 7 8 8 8 6 6 6 6 5 5 7 9 9 6 4 3 3 4 3 0 -1 -0 1 3 3 3 5 7 8 9 10 10 11 10 10 9 8 8 7 7 7 7 8 8 8 9 9 9 9 9 9 9 10 9 9 9 nan
nan 13 12 11 9 8 9 9 8 8 10 13 13 14 17 16 11 5 3 5 7 9 10 11 11 10 8 8 7 7 8 8 8 8 8 7 6 5 6 7 7 6 5 5 5 9 9 2 -1 -1 1 2 3 3 3 4 5 5 7 8 8 9 9 8 8 8 8 7 7 7 7 7 8 8 8 8 8 9 9 10 10 10 10 11 11 nan
nan 11 11 11 10 9 10 9 7 7 8 10 11 12 16 18 16 11 7 4 3 5 9 11 9 6 7 10 11 9 7 5 5 8 9 10 10 10 10 10 9 9 9 9 10 13 10 3 2 8 7 2 2 2 1 2 5 7 6 5 6 7 6 6 7 7 7 7 7 7 7 8 7 7 7 7 8 8 9 10 11 11 12 12 12 nan
nan 12 10 10 10 10 12 12 10 8 8 9 9 10 14 18 17 14 13 10 5 3 8 10 8 4 5 10 15 13 8 4 6 8 10 10 11 12 11 10 11 12 12 13 14 15 10 4 7 12 14 12 8 6 6 7 9 8 6 6 6 6 6 6 6 5 6 7 8 7 8 8 7 7 7 7 7 8 9 10 11 12 13 13 12 nan
nan 19 16 13 10 8 9 9 8 9 10 10 10 10 11 13 13 13 13 12 8 7 8 9 6 3 4 10 16 18 12 7 8 9 9 8 10 12 11 9 10 11 12 13 14 13 10 10 12 15 19 21 19 16 17 18 15 11 10 9 7 7 8 6 6 7 7 7 8 8 8 7 7 7 6 7 7 8 9 11 11 12 12 11 10 nan
nan 22 24 24 20 14 11 10 8 6 9 10 9 9 10 10 9 10 10 8 9 10 11 10 6 4 6 9 13 17 14 10 8 9 8 8 10 12 10 8 9 10 12 12 12 12 12 12 13 15 20 25 22 19 19 20 18 15 13 11 10 10 8 8 8 8 8 8 9 8 8 8 7 7 7 8 8 9 10 11 11 11 11 10 9 nan
nan 14 17 22 25 22 17 18 17 13 12 13 11 10 11 9 7 8 7 7 10 11 12 9 8 8 10 9 9 14 15 12 8 8 8 9 11 12 9 8 9 11 12 11 11 11 12 13 15 18 25 25 19 16 16 16 15 14 13 12 11 10 9 10 10 10 10 10 10 10 9 8 8 8 8 9 9 10 10 11 11 10 9 8 8 nan
nan 10 12 13 14 13 12 13 15 15 15 18 18 18 14 10 8 8 6 7 11 13 10 7 8 10 9 9 9 11 14 13 9 7 6 6 8 12 12 10 10 11 12 11 10 9 11 13 17 22 25 19 15 13 12 12 12 11 10 10 9 9 9 10 10 11 11 11 10 10 9 9 9 9 10 10 10 10 10 10 10 9 8 7 7 nan
nan 9 10 11 10 9 10 8 8 9 11 14 19 25 20 12 10 10 10 9 9 10 10 10 9 8 7 8 8 10 13 13 8 5 3 4 7 13 15 13 11 10 9 7 8 11 13 13 15 17 16 13 12 12 11 11 10 10 9 9 8 8 9 9 10 10 10 10 10 9 9 9 9 10 10 10 9 9 9 8 8 8 7 7 6 nan
nan 8 8 11 13 13 10 6 6 8 11 16 20 25 25 17 10 10 14 14 13 12 9 8 10 8 8 7 5 7 13 13 7 4 4 5 7 12 15 14 9 6 4 7 12 14 14 12 11 12 13 14 13 11 11 11 10 10 9 9 9 9 9 10 10 10 10 10 10 10 10 10 10 10 9 9 8 8 8 7 7 7 6 6 5 nan
nan 6 6 11 14 13 10 8 7 10 13 16 18 20 21 20 16 15 14 13 13 12 9 9 10 10 10 6 5 8 15 15 9 6 7 7 8 10 13 12 7 5 6 10 13 13 12 11 12 16 18 16 13 11 11 11 11 10 10 9 9 10 10 10 11 11 11 10 10 10 10 10 10 9 9 8 8 7 7 7 6 6 6 5 5 nan
nan 9 9 11 13 13 12 12 12 12 13 13 13 12 11 13 17 21 16 11 12 11 10 12 13 13 10 9 9 12 17 17 11 8 7 8 8 9 10 11 10 9 9 11 12 10 10 11 13 16 18 16 13 12 12 12 12 12 11 11 11 11 11 11 11 11 11 11 11 10 10 10 9 9 8 8 7 7 7 6 6 6 6 5 5 nan
nan 13 13 13 15 18 19 19 18 17 15 13 12 11 9 11 15 21 21 17 14 13 13 13 11 9 6 7 9 10 14 16 13 8 7 8 9 9 10 11 10 9 8 10 11 11 10 11 13 14 15 14 13 14 14 14 13 13 12 12 12 12 11 11 12 12 11 11 11 10 10 9 9 8 8 7 7 7 7 6 6 6 6 6 5 nan
nan 17 16 14 15 22 29 29 27 28 28 23 17 15 14 16 17 18 18 15 13 13 14 11 8 4 3 4 5 6 9 15 16 11 8 8 9 9 10 11 9 6 6 9 12 13 11 11 13 14 14 12 13 14 14 15 14 13 13 13 12 12 12 12 12 12 11 11 10 9 9 8 8 7 7 7 7 6 7 6 6 5 5 5 5 nan
nan 17 16 14 14 17 24 27 27 31 39 41 33 27 23 21 18 14 11 10 11 12 11 7 6 5 6 6 6 6 8 11 14 14 10 10 9 7 8 10 8 7 9 9 11 13 13 12 12 12 13 12 11 11 15 15 14 14 13 12 12 12 12 12 12 11 11 10 10 9 8 8 7 7 7 6 6 6 6 5 5 4 3 2 2 nan
nan 10 11 14 14 13 13 12 12 16 26 37 40 42 36 26 20 13 8 9 12 14 11 7 6 6 7 8 7 8 9 10 10 11 12 13 9 7 8 10 10 8 8 8 8 10 13 11 10 11 12 12 11 10 12 12 13 13 13 12 12 12 11 11 11 11 10 10 9 8 8 7 6 6 6 6 5 5 5 4 4 2 0 -2 -3 nan
nan 5 5 7 9 9 8 5 3 4 10 18 27 40 42 29 18 11 7 10 15 17 15 10 7 7 7 7 8 8 10 9 8 10 15 15 9 8 10 10 9 8 6 5 4 4 7 9 8 9 11 14 13 9 4 5 7 8 10 12 12 12 11 11 11 11 10 10 9 8 7 6 6 5 5 5 5 5 5 4 3 1 -2 -3 -2 nan
nan 1 1 2 6 7 7 3 -2 -4 2 10 18 30 34 25 15 10 8 12 17 19 16 12 11 10 9 8 8 6 7 6 6 13 19 16 10 10 11 10 8 7 5 4 1 -1 1 6 7 10 11 13 12 7 -1 -2 -1 0 2 6 8 9 11 11 11 11 10 10 9 8 7 6 5 5 5 5 5 5 5 4 2 -1 -1 2 5 nan
nan 2 0 -0 3 6 7 4 -3 -9 -7 3 12 22 27 21 14 11 12 15 18 20 17 15 13 11 9 6 5 4 3 2 6 16 22 16 10 10 11 10 9 7 4 3 3 2 2 4 7 10 12 11 9 7 3 0 -1 -2 -3 -3 -1 4 9 10 9 9 9 9 9 8 7 6 6 5 5 5 6 6 6 5 3 2 4 7 9 nan
nan 8 6 3 5 6 7 5 1 -5 -8 -3 5 13 19 18 15 13 14 16 17 18 18 16 12 11 8 6 5 5 5 2 4 13 21 18 11 11 10 10 9 8 5 5 7 7 4 4 6 8 11 10 8 8 8 7 5 3 1 -2 -2 1 5 4 4 4 5 7 8 8 8 7 6 6 6 6 6 7 7 8 8 8 9 9 9 nan
nan 11 9 8 9 9 8 8 7 4 1 1 3 6 11 14 16 16 16 15 16 17 19 17 13 11 10 11 11 11 8 4 3 9 20 19 13 12 11 9 8 6 6 9 13 11 8 7 8 7 8 8 8 7 8 10 10 10 8 5 3 1 -1 -3 -2 -2 -1 2 3 5 6 7 7 6 6 6 7 7 8 10 11 13 13 12 10 nan
nan 13 10 10 11 10 10 10 10 9 8 7 7 7 8 9 12 16 17 15 16 17 18 16 14 12 12 12 13 13 10 5 3 7 19 21 15 12 12 9 7 6 7 9 13 14 14 13 11 9 7 7 7 7 7 10 12 12 10 8 6 3 -3 -4 -4 -3 -2 -3 -4 -3 0 2 3 5 5 6 6 6 8 9 11 14 16 15 13 nan
nan 12 12 12 11 10 9 9 10 11 10 9 9 10 11 9 9 11 15 16 16 16 17 17 16 16 14 10 9 9 7 4 3 8 19 22 18 14 12 9 9 8 8 9 11 12 14 16 14 11 7 7 7 7 7 8 10 12 11 10 9 6 2 1 1 1 1 -1 -2 -3 -4 -3 -2 1 2 4 5 6 7 7 9 11 15 17 16 nan
nan 10 12 12 11 9 8 9 9 10 10 9 8 9 11 11 11 10 11 13 14 15 16 17 18 18 18 15 12 8 6 3 3 11 20 22 19 14 11 10 11 10 10 11 10 10 11 13 13 12 9 7 7 6 7 8 9 10 11 11 11 10 9 8 8 7 5 5 5 4 2 1 1 1 2 5 6 6 6 6 7 8 10 13 15 nan
nan 9 10 11 11 10 8 8 9 9 10 9 8 8 9 10 11 11 10 11 12 12 14 16 18 20 22 20 17 13 9 6 6 12 21 24 20 15 11 11 12 12 12 12 11 11 11 11 11 11 9 7 6 6 7 9 9 10 10 9 9 10 11 11 11 10 9 10 10 9 9 8 7 6 7 8 7 7 6 5 5 6 6 8 11 nan
nan 9 10 11 10 10 9 9 9 9 9 9 8 8 9 10 10 11 10 11 12 12 11 11 13 15 23 25 20 17 14 12 12 13 20 25 23 19 14 12 12 14 15 15 13 11 10 10 9 8 6 7 8 10 10 9 9 9 9 8 9 9 10 10 11 11 11 11 11 11 11 10 9 9 9 7 5 3 3 3 4 5 5 6 7 nan
nan 9 10 11 11 10 10 9 9 9 9 9 9 9 8 9 10 12 11 9 10 13 13 10 7 3 10 21 21 21 17 15 15 15 20 25 23 21 17 13 11 14 18 19 15 12 9 8 7 5 4 8 11 12 11 9 9 9 8 8 9 10 10 11 10 10 11 11 11 11 10 9 8 9 8 6 4 3 2 3 5 6 6 6 6 nan
nan 9 9 10 11 11 11 10 10 10 10 10 10 11 9 8 9 11 11 9 8 9 12 14 10 2 -0 6 11 15 16 13 13 15 18 22 21 19 16 14 12 12 16 18 16 14 10 8 9 8 9 8 9 9 9 10 10 10 9 7 8 9 11 11 11 10 10 10 10 9 7 7 8 9 9 8 8 8 7 8 8 8 8 9 9 nan
nan 10 8 9 11 11 11 11 11 11 11 10 10 11 12 10 9 7 8 9 9 7 7 10 11 7 3 2 3 6 12 13 12 14 16 19 21 19 15 14 13 13 14 16 16 15 13 13 13 14 12 11 11 10 10 11 12 12 9 6 8 10 11 11 11 11 10 10 9 8 8 9 10 11 10 11 11 10 10 10 10 9 9 10 12 nan
nan 10 9 9 9 9 10 11 12 12 12 12 11 11 11 11 11 9 8 8 9 9 7 7 8 7 5 3 3 4 7 10 11 15 15 16 21 23 19 15 14 13 13 14 16 17 17 18 16 13 12 13 12 11 11 13 14 11 7 8 11 12 11 11 10 10 10 10 10 11 12 10 10 9 10 10 9 9 10 11 10 10 9 10 10 nan
nan 11 11 10 10 10 10 10 11 12 13 12 11 11 11 12 12 12 11 9 10 10 11 10 9 8 7 5 3 2 4 7 8 11 13 15 19 22 21 19 17 16 13 11 12 15 18 19 17 15 14 12 10 9 11 12 11 9 9 11 11 9 7 8 8 9 10 10 11 12 10 9 9 9 9 9 9 8 9 9 10 9 9 9 10 nan
nan 10 10 10 11 10 10 11 11 12 12 11 10 10 11 12 12 12 12 11 10 11 13 12 11 10 9 8 6 3 2 3 5 8 11 13 16 19 19 20 21 20 17 12 9 9 11 14 15 15 15 14 13 13 12 9 9 9 12 12 8 5 5 8 9 9 9 10 9 9 9 9 10 10 9 9 9 9 9 9 9 8 8 8 9 nan
nan 10 11 11 11 11 11 11 11 11 11 11 10 10 10 11 12 13 13 11 10 11 13 13 11 10 9 8 8 7 4 1 0 3 4 9 16 20 18 16 19 20 21 18 13 9 7 7 10 12 13 13 14 13 12 11 10 11 11 11 10 10 12 13 11 9 8 9 8 9 10 10 10 10 10 10 10 10 9 9 9 10 9 9 9 nan
nan 10 11 11 11 11 11 11 11 11 11 10 10 10 10 11 12 13 13 11 10 11 13 15 15 11 8 8 9 9 7 5 3 1 -3 -2 5 13 18 16 15 15 16 18 17 16 12 9 9 10 11 13 13 13 12 11 10 10 10 11 11 13 15 14 12 10 10 9 9 9 9 10 10 11 11 11 10 10 9 10 10 10 10 10 9 nan
nan 10 11 11 10 9 10 12 12 11 10 10 10 11 11 11 12 11 11 12 12 11 12 14 16 14 11 10 11 10 10 9 8 7 3 0 1 5 9 12 14 15 14 13 15 17 17 15 13 12 12 11 10 10 11 11 10 9 9 9 10 10 11 10 10 11 11 10 9 9 10 10 11 11 12 11 10 10 10 10 10 10 10 10 10 nan
nan 11 11 11 10 9 9 10 11 11 10 9 9 10 11 12 13 12 11 11 12 11 11 12 12 12 12 12 12 12 11 11 11 11 9 7 7 7 8 8 9 13 14 13 13 14 15 16 17 16 13 10 8 8 9 10 11 10 9 8 8 8 8 8 9 10 10 10 10 10 10 11 12 12 11 10 10 10 10 10 10 10 10 10 10 nan
nan 11 11 11 11 10 10 10 11 10 10 10 10 9 9 10 13 16 13 11 12 12 11 12 11 10 10 11 11 12 13 12 11 11 10 9 8 9 9 9 7 7 8 9 9 10 10 13 17 20 18 14 12 10 9 9 10 10 9 9 8 8 9 9 9 9 9 9 10 10 10 11 11 11 11 10 10 10 10 10 10 10 10 10 10 nan
nan 10 11 11 11 11 10 10 11 10 10 11 11 10 7 6 8 15 15 11 12 12 11 11 11 11 10 10 10 10 11 12 11 10 10 10 10 9 9 9 8 7 5 3 3 3 2 3 8 16 22 22 18 14 10 9 10 10 10 10 10 9 9 9 9 9 9 9 9 9 10 10 10 10 10 11 11 10 10 10 11 11 11 11 11 nan
nan 11 11 11 10 10 10 10 10 11 10 11 12 12 10 8 8 9 12 12 12 12 11 11 11 11 11 10 10 10 10 11 11 10 11 11 11 11 11 9 8 8 6 4 3 2 0 -3 -4 -2 9 21 25 23 14 9 9 9 10 11 11 11 10 9 9 9 10 10 9 8 9 10 10 10 10 10 11 11 11 11 12 12 12 12 11 nan
nan nan nan nan nan nan nan nan nan nan nan nan nan nan nan nan nan nan nan nan nan nan nan nan nan nan nan nan nan nan nan nan nan nan nan nan nan nan nan nan nan nan nan nan nan nan nan nan nan nan nan nan nan nan nan nan nan nan nan nan nan nan nan nan nan nan nan nan nan nan nan nan nan nan nan nan nan nan nan nan nan nan nan nan nan nan
CAPE
0 nan 1 114 114 156 110 68 134 134 172 160 117 117 78 66 119 119 56 42 42 118 144 161 161 91 nan nan 1 1 5 2 nan nan nan nan nan nan nan nan nan nan nan nan nan nan nan nan nan nan nan nan nan nan nan nan nan nan nan nan nan nan nan nan nan nan 1 4 5 5 5 3 1 1 1 0 nan nan nan nan nan nan nan nan nan nan
5 0 nan 3 3 122 113 103 107 107 175 138 94 94 78 72 77 77 66 30 30 59 127 157 157 124 50 nan nan nan nan nan nan nan nan nan nan nan nan nan nan nan nan nan nan nan nan nan nan nan nan nan nan nan nan nan nan nan nan nan nan nan nan nan nan nan 0 2 2 2 2 0 nan nan nan nan nan nan nan nan nan nan nan nan nan nan
29 1 nan nan nan 20 125 219 105 105 186 131 77 77 70 76 68 68 61 33 33 19 26 42 42 65 48 nan nan nan nan nan nan nan nan nan nan nan nan nan nan nan nan nan nan nan nan nan nan nan nan nan nan nan nan nan nan nan nan nan nan nan nan nan nan nan nan nan 1 1 1 0 nan nan nan nan nan nan nan nan nan nan nan nan nan nan
54 17 nan nan nan 3 71 216 99 99 152 125 95 95 73 84 78 78 67 41 41 13 10 17 17 18 18 2 nan nan nan nan nan nan nan nan nan nan nan nan nan nan nan nan nan nan nan nan nan nan nan nan nan nan nan nan nan nan nan nan nan nan nan nan nan nan nan nan nan nan nan nan nan nan nan nan nan nan nan nan nan nan nan nan nan nan
61 41 4 nan nan 2 56 198 154 154 130 139 97 97 98 91 89 89 79 48 48 22 12 14 14 10 7 3 0 0 nan 0 1 1 0 0 nan nan nan nan nan nan nan nan nan nan nan nan nan nan nan nan nan nan nan nan nan nan nan nan nan nan nan nan nan nan nan nan nan nan nan nan nan nan nan nan nan nan nan nan nan nan nan nan nan nan
61 49 26 nan nan 0 108 192 154 154 147 166 114 114 92 104 100 100 85 48 48 24 8 9 9 7 5 1 nan nan 0 1 1 1 1 1 1 1 0 nan nan nan nan nan nan nan nan nan nan nan nan nan nan nan nan nan nan nan nan nan nan nan nan nan nan nan nan nan nan nan nan nan nan nan nan nan nan nan nan nan nan nan nan nan nan nan
56 52 30 1 1 nan 168 205 140 140 80 145 164 164 101 126 120 120 89 45 45 19 11 10 10 4 1 nan nan nan 2 1 0 0 0 0 1 1 2 1 1 0 nan nan nan nan nan nan nan nan nan nan nan nan nan nan nan nan nan nan nan nan nan nan nan nan nan nan nan nan nan nan nan nan nan nan nan nan nan nan nan nan nan nan nan nan
58 58 34 5 5 nan 85 158 126 126 39 29 84 84 127 156 182 182 160 53 53 40 28 4 4 12 22 25 25 25 31 35 22 22 12 7 2 2 0 1 1 1 1 1 1 nan nan nan nan nan nan nan nan nan nan nan nan nan nan nan nan nan nan nan nan nan nan nan nan nan nan nan nan nan nan nan nan nan nan nan nan nan nan 0 0 1
79 63 48 12 12 nan 25 105 137 137 43 8 39 39 95 88 74 74 68 34 34 32 25 16 16 15 23 31 30 30 26 31 32 32 23 10 3 3 3 0 0 0 0 1 1 0 nan nan nan nan nan nan nan nan 0 0 0 nan nan nan nan nan nan nan nan nan nan nan nan nan nan nan nan nan nan nan nan nan nan nan nan nan 0 1 1 2
111 72 48 23 23 nan 2 63 121 121 70 8 14 14 82 127 76 76 29 8 8 11 34 40 40 17 17 26 30 30 32 35 26 26 20 3 2 2 0 nan nan nan nan nan nan nan nan nan nan nan nan 0 3 3 3 2 2 nan nan nan nan nan nan nan nan nan nan nan nan nan nan nan nan nan nan nan nan nan nan nan nan nan 0 0 0 0
181 104 65 27 27 7 13 94 123 123 83 13 3 3 10 71 95 95 44 11 11 3 15 5 5 3 7 12 30 30 34 48 39 39 18 8 2 2 nan nan nan nan 0 nan nan nan nan 1 1 4 7 8 6 6 4 1 1 nan nan nan nan nan nan nan nan nan nan nan nan nan nan nan nan nan nan nan nan nan nan nan nan nan nan nan nan nan
203 152 98 39 39 13 47 153 157 157 81 13 8 8 nan 2 33 33 60 29 29 4 0 1 1 0 1 3 10 10 27 40 44 44 25 12 4 4 nan 0 0 3 2 0 0 nan nan nan nan 1 3 3 2 2 1 0 0 nan nan nan nan nan 1 1 1 1 1 1 nan nan nan nan nan nan nan nan nan nan nan nan nan nan nan nan nan nan
187 192 128 58 58 11 55 149 129 129 86 23 5 5 1 nan nan nan 10 41 41 6 nan nan nan 0 0 0 2 2 13 32 34 34 32 16 6 6 1 1 1 1 1 2 2 0 nan nan nan 0 nan nan nan nan nan nan nan nan nan nan nan 0 2 5 5 7 8 8 4 4 1 nan nan nan nan nan nan nan nan nan nan nan nan nan nan nan
148 154 84 51 51 15 40 124 100 100 84 40 31 31 18 nan nan nan nan 0 0 1 0 0 0 0 nan nan nan nan 1 8 18 18 24 27 22 22 11 7 7 2 1 3 3 3 nan nan nan nan nan nan nan nan nan nan nan nan nan 0 0 1 1 4 4 8 13 13 11 11 7 1 nan nan nan nan nan nan nan nan nan nan nan nan nan nan
122 105 32 26 26 21 61 92 76 76 75 41 50 50 31 1 nan nan nan 0 0 nan nan 0 0 nan nan nan nan nan nan nan 3 3 9 14 7 7 8 13 13 19 8 9 9 12 4 2 2 1 nan nan nan nan nan nan nan nan nan nan nan nan 0 1 1 3 9 10 9 9 8 3 0 0 nan nan nan nan nan nan nan nan nan nan nan nan
80 70 32 38 38 47 86 68 67 67 71 51 40 40 28 7 0 0 nan nan nan nan nan 0 0 nan nan nan nan nan nan nan nan nan 2 14 4 4 3 6 6 7 3 3 3 7 9 10 10 10 6 nan nan nan nan nan nan nan nan nan nan nan 1 8 8 16 22 24 19 19 14 10 3 3 0 nan nan nan nan nan nan nan nan nan nan nan
5 7 33 37 37 35 86 114 77 77 83 49 30 30 27 12 1 1 nan nan nan nan 1 2 2 1 nan nan nan nan nan 0 nan nan nan nan 0 0 0 1 1 3 2 3 3 2 1 1 1 2 2 nan nan nan nan nan nan nan nan nan nan nan 1 5 5 10 15 14 8 8 4 0 nan nan nan nan nan nan nan nan nan nan nan nan nan nan
3 3 5 7 7 1 0 1 0 0 31 53 23 23 21 10 0 0 0 nan nan nan 0 2 2 2 1 0 nan nan nan 3 4 4 nan nan nan nan nan nan nan 0 0 0 0 0 0 1 1 nan nan nan nan nan nan nan nan nan nan nan nan nan nan nan nan nan nan nan nan nan nan nan nan nan nan nan nan nan nan nan nan nan nan nan nan nan
2 2 2 3 3 5 3 2 1 1 0 nan 1 1 8 nan nan nan nan nan nan 1 nan nan nan 1 1 0 nan nan nan 1 1 1 0 0 nan nan 0 nan nan nan nan nan nan nan nan nan nan nan nan nan nan nan nan nan nan nan nan nan nan nan nan nan nan nan nan nan nan nan nan nan nan nan nan nan nan nan nan nan nan nan nan nan nan nan
3 3 2 4 4 6 3 3 2 2 1 1 nan nan 0 nan nan nan nan nan nan 6 nan nan nan nan 0 nan nan nan nan nan nan nan nan nan nan nan 3 nan nan 0 nan nan nan nan nan nan nan nan nan nan nan nan nan nan nan nan nan nan nan nan nan nan nan nan nan nan nan nan nan nan nan nan nan nan nan nan nan nan nan nan nan nan nan nan
5 3 2 4 4 5 3 3 3 3 3 1 0 0 nan 0 nan nan nan nan nan nan nan nan nan nan 0 nan nan nan nan nan nan nan nan nan nan nan nan 1 1 nan 0 nan nan nan nan nan nan nan nan nan nan nan nan nan nan nan nan nan nan nan nan nan nan nan nan nan nan nan nan nan nan nan nan nan nan nan nan nan nan nan nan nan nan nan
4 2 1 2 2 4 8 5 4 4 3 1 0 0 0 0 1 1 1 12 12 8 nan nan nan nan nan nan nan nan nan nan nan nan nan nan nan nan nan 2 2 nan nan 2 2 4 nan nan nan nan nan nan nan nan nan nan nan nan nan nan nan nan nan nan nan nan nan nan nan nan nan nan nan nan nan nan nan nan nan nan nan nan nan nan nan nan
2 1 0 1 1 3 8 6 4 4 2 1 1 1 1 1 nan nan 9 11 11 nan nan nan nan nan nan nan nan nan nan nan nan nan nan nan nan nan nan nan nan nan nan 1 1 6 nan nan nan nan nan nan nan nan nan nan nan nan nan nan nan nan nan nan nan nan nan nan nan nan nan nan nan nan nan nan nan nan nan nan nan nan nan nan nan nan
2 0 nan 0 0 1 6 5 3 3 2 1 2 2 1 1 1 1 nan nan nan nan nan nan nan nan nan nan nan nan nan nan nan nan nan nan nan nan nan nan nan nan nan nan nan 1 1 1 1 1 0 0 1 1 nan 0 0 nan nan nan nan nan nan nan nan nan nan nan nan nan nan nan nan nan nan nan nan nan nan nan nan nan nan nan nan nan
5 1 1 1 1 6 5 3 6 6 3 2 1 1 0 0 0 0 nan nan nan nan nan nan nan nan nan nan nan nan nan nan nan nan nan nan nan nan nan nan nan nan nan nan nan nan nan 0 0 3 4 2 3 3 2 1 1 nan nan nan nan nan nan nan nan nan nan nan nan nan nan nan nan nan nan nan nan nan nan nan nan nan nan nan nan nan
18 13 10 14 14 28 28 25 19 19 10 2 1 1 0 nan nan nan nan nan nan nan nan nan nan nan nan nan nan nan nan nan nan nan nan nan nan nan nan nan nan nan nan nan nan nan nan nan nan nan 0 3 1 1 0 nan nan nan nan nan nan nan nan nan nan nan nan nan nan nan nan nan nan nan nan nan nan nan nan nan nan nan nan nan nan nan
38 38 42 41 41 37 32 26 22 22 22 12 3 3 nan nan 0 0 nan nan nan nan nan nan nan nan nan nan nan nan nan nan nan nan nan nan nan nan nan nan nan nan nan nan nan nan nan nan nan nan nan nan nan nan nan nan nan nan nan nan nan nan nan nan nan nan nan nan nan nan nan nan nan nan nan nan nan nan nan nan nan nan nan nan nan nan
37 37 34 32 32 28 26 24 22 22 22 18 12 12 1 0 1 1 2 1 1 nan nan nan nan nan nan nan nan nan nan nan nan nan nan nan nan nan nan nan nan nan nan nan nan nan nan nan nan nan nan nan nan nan nan nan nan nan nan nan nan nan nan nan nan nan nan nan nan nan nan nan nan nan nan nan nan nan nan nan nan nan nan nan nan nan
27 29 31 29 29 23 20 20 23 23 24 19 13 13 3 nan 0 0 1 3 3 nan nan nan nan nan nan nan nan nan nan nan nan nan nan nan nan nan nan nan nan nan nan nan nan nan nan nan nan nan nan nan nan nan nan nan nan nan nan nan nan nan nan nan nan nan nan nan nan nan nan nan nan nan nan nan nan nan nan nan nan nan nan nan nan nan
6 13 16 22 22 18 10 4 18 18 25 20 14 14 7 0 0 0 0 1 1 nan nan nan nan nan nan nan nan nan nan nan nan nan nan nan nan nan nan nan nan nan nan nan nan nan nan nan nan nan nan nan nan nan nan nan nan nan 0 1 1 nan nan nan nan nan nan nan nan nan nan nan nan nan nan nan nan nan nan nan nan nan nan nan nan nan
nan nan nan 2 2 3 0 nan 3 3 17 19 13 13 7 1 0 0 0 1 1 1 4 nan nan nan nan nan nan nan nan nan 0 0 nan nan nan nan nan nan nan nan nan nan nan nan nan nan nan nan nan nan nan nan nan nan nan nan nan nan nan nan 0 nan nan nan nan nan nan nan nan nan nan nan nan nan nan nan nan nan nan nan nan nan nan nan
nan nan nan nan nan nan nan nan nan nan nan nan 0 0 5 3 1 1 nan nan nan nan 0 nan nan nan nan nan nan nan 0 0 1 1 0 nan nan nan nan nan nan nan nan nan nan nan nan nan nan nan nan nan nan nan nan nan nan nan nan nan nan nan nan nan nan nan nan nan nan nan nan nan nan nan nan nan nan nan nan nan nan nan nan nan nan nan
0 nan nan nan nan nan nan nan nan nan nan nan nan nan nan 0 4 4 1 nan nan nan nan 0 0 nan nan nan 0 0 0 1 2 2 0 nan nan nan nan nan nan nan nan nan nan nan nan nan nan nan nan nan nan nan nan nan nan nan nan nan nan nan nan nan nan nan nan nan nan nan nan nan nan nan nan nan nan nan nan nan nan nan nan nan nan nan
nan nan nan nan nan nan nan nan nan nan nan nan 1 1 nan nan nan nan 0 nan nan nan nan nan nan 0 nan nan nan nan nan 0 3 3 1 nan nan nan nan nan nan nan nan nan nan nan nan nan nan nan nan nan nan nan nan nan nan nan nan nan nan nan nan nan nan nan nan nan nan nan nan nan nan nan nan nan nan nan nan nan nan nan nan nan nan nan
nan nan nan nan nan nan nan nan nan nan nan nan 0 0 0 nan nan nan nan nan nan nan nan nan nan nan nan nan nan nan nan nan 2 2 2 nan nan nan nan nan nan nan nan nan nan nan nan nan nan nan nan nan nan nan nan nan nan nan nan nan nan nan nan nan nan nan nan nan nan nan nan nan nan nan nan nan nan nan nan nan nan nan nan nan nan nan
nan nan nan nan nan nan nan nan nan nan nan nan nan nan nan nan nan nan nan nan nan 0 1 nan nan nan nan nan nan nan nan nan 1 1 2 nan nan nan nan nan nan nan nan nan nan nan nan nan nan nan nan nan nan nan nan nan nan 1 1 nan nan nan nan nan nan nan nan nan nan nan nan nan nan nan nan nan nan nan nan nan nan nan nan nan nan nan
nan nan nan nan nan nan nan nan nan nan nan nan nan nan nan nan nan nan nan nan nan nan nan 2 2 1 3 nan nan nan nan nan nan nan 1 nan nan nan nan nan nan nan nan nan nan nan nan nan nan nan nan nan nan nan nan nan nan nan 1 1 1 0 nan nan nan nan nan nan nan nan nan nan nan nan nan nan nan nan nan nan nan nan nan nan nan nan
nan nan nan nan nan nan nan nan nan nan nan nan nan nan nan nan nan nan nan nan nan nan nan nan nan nan 6 5 0 0 nan nan nan nan nan nan nan nan nan nan nan nan nan nan nan nan nan nan nan nan nan nan nan nan nan nan nan nan 0 0 0 0 nan nan nan nan nan nan nan nan nan nan nan nan nan nan nan nan nan nan nan nan nan nan nan nan
nan nan nan nan nan nan nan nan nan nan nan nan nan nan nan nan nan nan nan nan nan nan nan nan nan nan nan 1 3 3 1 nan nan nan nan nan nan nan nan nan nan nan nan nan nan nan nan nan nan nan nan nan nan nan nan nan nan nan nan nan nan nan nan nan nan nan nan nan nan nan nan nan nan nan nan nan nan nan nan nan nan nan nan nan nan nan
nan nan nan nan nan nan nan nan nan nan nan nan nan nan nan nan nan nan nan nan nan nan nan nan nan nan nan 1 1 1 1 nan nan nan nan nan nan nan nan nan nan nan nan nan nan nan nan nan nan nan nan nan nan nan nan nan nan nan nan nan nan nan nan nan nan nan nan nan nan nan nan nan nan nan nan nan nan nan nan nan nan nan nan nan nan nan
nan nan nan nan nan nan nan nan nan nan nan nan nan nan nan nan nan nan nan nan nan nan nan nan nan nan nan nan nan nan nan nan nan nan nan nan nan nan nan nan nan nan nan nan nan nan nan nan nan nan nan nan nan nan nan nan nan 1 nan nan nan nan nan nan nan nan nan nan nan nan nan nan nan nan nan nan nan nan nan nan nan nan nan nan nan nan
nan nan nan nan nan nan nan nan nan nan nan nan nan nan nan nan nan nan nan nan nan nan nan nan nan nan nan nan nan nan nan nan nan nan nan nan nan nan nan nan nan nan nan nan nan nan nan nan nan nan nan nan nan nan nan nan nan 0 nan nan nan nan nan nan nan nan nan nan nan nan nan nan nan nan nan nan nan nan nan nan nan nan nan nan nan nan
nan nan nan nan nan nan nan nan nan nan nan nan nan nan nan nan nan nan nan nan nan nan nan nan nan nan nan nan nan nan nan nan nan nan nan nan nan nan nan nan nan nan nan nan nan nan nan nan nan nan nan nan nan nan nan nan nan nan nan nan nan nan nan nan nan nan nan nan nan nan nan nan nan nan nan nan nan nan nan nan nan nan nan nan nan nan
nan nan nan nan nan nan nan nan nan nan nan nan nan nan nan nan nan nan nan nan nan nan nan nan nan nan nan nan nan nan nan nan nan nan nan 0 nan nan nan nan nan nan nan nan nan nan nan nan nan nan nan nan nan nan nan nan nan nan nan nan nan nan nan nan nan nan nan nan nan nan nan nan nan nan nan nan nan nan nan nan nan nan nan nan nan nan
nan nan nan nan nan nan nan nan nan nan nan nan nan nan nan nan nan nan nan nan nan nan nan nan nan nan nan nan nan nan nan nan nan nan nan 0 2 2 nan nan nan nan nan nan nan nan nan nan nan nan nan nan nan nan nan nan nan nan nan nan nan nan nan nan nan nan nan nan nan nan nan nan nan nan nan nan nan nan nan nan nan nan nan nan nan nan
nan nan nan nan nan nan nan nan nan nan nan nan nan nan nan nan nan nan nan nan nan nan nan nan nan nan nan nan nan nan nan nan nan nan nan nan nan nan nan nan nan nan nan nan nan nan nan nan nan nan nan nan nan nan nan nan nan nan nan nan nan nan nan nan nan nan nan nan nan nan nan nan nan nan nan nan nan nan nan nan nan nan nan nan nan nan
nan nan nan nan nan nan nan nan nan nan nan nan nan nan nan nan nan nan nan nan nan nan nan nan nan nan nan nan nan nan nan nan nan nan nan nan nan nan nan nan nan nan nan nan nan nan nan nan nan nan nan nan nan nan nan nan nan nan nan nan nan nan nan nan nan nan nan nan nan nan nan nan nan nan nan nan nan nan nan nan nan nan nan nan nan nan
nan nan nan nan nan nan nan nan nan nan nan nan nan nan nan nan nan nan nan nan nan nan nan nan nan nan nan nan nan nan nan nan nan nan nan nan nan nan nan nan nan nan nan nan nan nan nan nan nan nan nan nan nan nan nan nan nan nan nan nan nan nan nan nan nan nan nan nan nan nan nan nan nan nan nan nan nan nan nan nan nan nan nan nan nan nan
nan nan nan nan nan nan nan nan nan nan nan nan nan nan nan nan nan nan nan nan nan nan nan nan nan nan nan nan nan nan nan nan nan nan nan nan nan nan nan nan nan nan nan nan nan nan nan nan nan nan nan nan nan nan nan nan nan nan nan nan nan nan nan nan nan nan nan nan nan nan nan nan nan nan nan nan nan nan nan nan nan nan nan nan nan nan
nan nan nan nan nan nan nan nan nan nan nan nan nan nan nan nan nan nan nan nan nan nan nan nan nan nan nan nan nan nan nan nan nan nan nan nan nan nan nan nan nan nan nan nan nan nan nan nan nan nan nan nan nan nan nan nan nan nan nan nan nan nan nan nan nan nan nan nan nan nan nan nan nan nan nan nan nan nan nan nan nan nan nan nan nan nan
nan nan nan nan nan nan nan nan nan nan nan nan nan nan nan nan nan nan nan nan nan nan nan nan nan nan nan nan nan nan nan nan nan nan nan nan nan nan nan nan nan nan nan nan nan nan nan nan nan nan nan 6 nan nan nan nan nan nan nan nan nan nan nan nan nan nan nan nan nan nan nan nan nan nan nan nan nan nan nan nan nan nan nan nan nan nan